H1 CPF 2 NER 2025 11 21 9 325 01 glonass131 H2 1301901 9131 39155 2025 11 21 0 0 0 2025 11 24 23 45 0 900 1 1 0 0 0 1 H9 10 0 61000 0.00000 0 23617726.780 4559040.466 -8562704.534 10 0 61000 900.00000 0 24502475.647 4663152.810 -5490284.586 10 0 61000 1800.00000 0 25020762.780 4604741.147 -2311584.820 10 0 61000 2700.00000 0 25147100.403 4434595.759 911834.868 10 0 61000 3600.00000 0 24868830.328 4207687.847 4117638.252 10 0 61000 4500.00000 0 24186674.750 3980615.582 7243904.229 10 0 61000 5400.00000 0 23114750.253 3808991.972 10230304.628 10 0 61000 6300.00000 0 21680045.961 3744883.451 13019247.140 10 0 61000 7200.00000 0 19921388.501 3834405.445 15556963.156 10 0 61000 8100.00000 0 17887936.955 4115574.249 17794521.643 10 0 61000 9000.00000 0 15637269.664 4616503.865 19688751.650 10 0 61000 9900.00000 0 13233140.860 5354022.243 21203057.728 10 0 61000 10800.00000 0 10742998.101 6332764.435 22308114.370 10 0 61000 11700.00000 0 8235360.837 7544780.980 22982427.471 10 0 61000 12600.00000 0 5777166.057 8969679.227 23212752.760 10 0 61000 13500.00000 0 3431188.348 10575293.869 22994363.292 10 0 61000 14400.00000 0 1253639.015 12318861.732 22331160.180 10 0 61000 15300.00000 0 -707957.787 14148655.213 21235623.086 10 0 61000 16200.00000 0 -2416524.609 16006009.891 19728599.434 10 0 61000 17100.00000 0 -3846752.905 17827665.106 17838933.856 10 0 61000 18000.00000 0 -4985931.994 19548322.637 15602942.278 10 0 61000 18900.00000 0 -5834248.853 21103318.528 13063737.924 10 0 61000 19800.00000 0 -6404544.429 22431297.193 10270419.619 10 0 61000 20700.00000 0 -6721534.752 23476775.462 7277135.961 10 0 61000 21600.00000 0 -6820527.978 24192487.600 4142041.949 10 0 61000 22500.00000 0 -6745690.191 24541410.398 926167.627 10 0 61000 23400.00000 0 -6547932.778 24498380.102 -2307779.084 10 0 61000 24300.00000 0 -6282511.179 24051229.743 -5496651.042 10 0 61000 25200.00000 0 -6006438.069 23201395.643 -8578116.143 10 0 61000 26100.00000 0 -5775822.829 21963964.704 -11491900.340 10 0 61000 27000.00000 0 -5643252.967 20367158.377 -14180992.520 10 0 61000 27900.00000 0 -5655331.699 18451273.897 -16592784.978 10 0 61000 28800.00000 0 -5850479.312 16267127.179 -18680124.620 10 0 61000 29700.00000 0 -6257094.349 13874063.679 -20402252.203 10 0 61000 30600.00000 0 -6892154.802 11337622.239 -21725609.713 10 0 61000 31500.00000 0 -7760320.021 8726951.964 -22624499.140 10 0 61000 32400.00000 0 -8853571.940 6112092.441 -23081579.649 10 0 61000 33300.00000 0 -10151410.618 3561232.970 -23088193.890 10 0 61000 34200.00000 0 -11621594.872 1138066.747 -22644518.199 10 0 61000 35100.00000 0 -13221395.340 -1100648.984 -21759535.283 10 0 61000 36000.00000 0 -14899305.430 -3107225.395 -20450831.867 10 0 61000 36900.00000 0 -16597136.339 -4844779.571 -18744227.262 10 0 61000 37800.00000 0 -18252406.411 -6288506.917 -16673242.249 10 0 61000 38700.00000 0 -19800923.237 -7426438.556 -14278420.585 10 0 61000 39600.00000 0 -21179449.368 -8259655.778 -11606518.199 10 0 61000 40500.00000 0 -22328339.731 -8801956.661 -8709577.348 10 0 61000 41400.00000 0 -23194040.766 -9078992.764 -5643904.893 10 0 61000 42300.00000 0 -23731347.707 -9126915.759 -2468975.303 10 0 61000 43200.00000 0 -23905327.171 -8990593.761 753720.026 10 0 61000 44100.00000 0 -23692826.577 -8721474.502 3961855.036 10 0 61000 45000.00000 0 -23083509.355 -8375186.361 7093460.575 10 0 61000 45900.00000 0 -22080374.661 -8008978.415 10088103.364 10 0 61000 46800.00000 0 -20699741.473 -7679106.566 12888031.099 10 0 61000 47700.00000 0 -18970698.740 -7438274.376 15439263.429 10 0 61000 48600.00000 0 -16934044.768 -7333234.458 17692609.836 10 0 61000 49500.00000 0 -14640759.379 -7402649.326 19604596.986 10 0 61000 50400.00000 0 -12150070.986 -7675299.875 21138289.708 10 0 61000 51300.00000 0 -9527196.714 -8168715.476 22263991.651 10 0 61000 52200.00000 0 -6840846.609 -8888282.704 22959813.502 10 0 61000 53100.00000 0 -4160592.441 -9826870.515 23212098.652 10 0 61000 54000.00000 0 -1554207.132 -10964989.050 23015698.252 10 0 61000 54900.00000 0 914917.710 -12271477.749 22374089.758 10 0 61000 55800.00000 0 3190171.255 -13704697.039 21299335.365 10 0 61000 56700.00000 0 5223841.818 -15214177.205 19811879.137 10 0 61000 57600.00000 0 6978866.769 -16742658.954 17940184.244 10 0 61000 58500.00000 0 8430140.839 -18228443.428 15720214.548 10 0 61000 59400.00000 0 9565327.294 -19607955.677 13194767.665 10 0 61000 60300.00000 0 10385136.461 -20818415.628 10412669.758 10 0 61000 61200.00000 0 10903058.041 -21800504.791 7427845.435 10 0 61000 62100.00000 0 11144556.586 -22500915.760 4298279.255 10 0 61000 63000.00000 0 11145762.487 -22874675.365 1084888.185 10 0 61000 63900.00000 0 10951712.749 -22887140.778 -2149672.885 10 0 61000 64800.00000 0 10614215.801 -22515581.099 -5342248.371 10 0 61000 65700.00000 0 10189431.500 -21750274.201 -8430436.138 10 0 61000 66600.00000 0 9735270.527 -20595069.246 -11353831.765 10 0 61000 67500.00000 0 9308725.833 -19067388.405 -14055235.969 10 0 61000 68400.00000 0 8963252.159 -17197665.816 -16481798.902 10 0 61000 69300.00000 0 8746307.821 -15028246.444 -18586076.330 10 0 61000 70200.00000 0 8697165.822 -12611791.253 -20326974.911 10 0 61000 71100.00000 0 8845089.463 -10009256.575 -21670566.470 10 0 61000 72000.00000 0 9207951.379 -7287534.037 -22590754.417 10 0 61000 72900.00000 0 9791355.300 -4516851.837 -23069779.072 10 0 61000 73800.00000 0 10588297.601 -1768047.925 -23098552.508 10 0 61000 74700.00000 0 11579382.132 890169.328 -22676817.414 10 0 61000 75600.00000 0 12733577.718 3393857.706 -21813128.439 10 0 61000 76500.00000 0 14009484.514 5686264.885 -20524658.259 10 0 61000 77400.00000 0 15357053.674 7719939.059 -18836834.200 10 0 61000 78300.00000 0 16719685.919 9458440.264 -16782814.637 10 0 61000 79200.00000 0 18036618.942 10877583.714 -14402817.338 10 0 61000 80100.00000 0 19245501.952 11966166.611 -11743314.726 10 0 61000 81000.00000 0 20285048.511 12726151.940 -8856113.199 10 0 61000 81900.00000 0 21097656.237 13172305.540 -5797335.635 10 0 61000 82800.00000 0 21631884.059 13331305.504 -2626327.596 10 0 61000 83700.00000 0 21844684.305 13240364.594 595491.193 10 0 61000 84600.00000 0 21703297.735 12945426.172 3805808.042 10 0 61000 85500.00000 0 21186733.995 12499011.120 6942608.866 10 0 61001 0.00000 0 20286777.486 11957807.124 9945357.959 10 0 61001 900.00000 0 19008477.644 11380101.109 12756146.271 10 0 61001 1800.00000 0 17370105.563 10823162.529 15320783.848 10 0 61001 2700.00000 0 15402577.590 10340684.849 17589822.799 10 0 61001 3600.00000 0 13148370.625 9980391.429 19519489.198 10 0 61001 4500.00000 0 10659972.630 9781904.044 21072509.630 10 0 61001 5400.00000 0 7997930.778 9774961.795 22218818.054 10 0 61001 6300.00000 0 5228575.532 9978063.968 22936130.774 10 0 61001 7200.00000 0 2421511.982 10397593.389 23210379.303 10 0 61001 8100.00000 0 -353020.874 11027457.596 23035992.960 10 0 61001 9000.00000 0 -3026816.621 11849264.421 22416025.200 10 0 61001 9900.00000 0 -5536285.810 12833027.005 21362119.958 10 0 61001 10800.00000 0 -7824853.065 13938371.700 19894316.689 10 0 61001 11700.00000 0 -9845068.556 15116201.566 18040695.427 10 0 61001 12600.00000 0 -11560346.209 16310748.891 15836865.897 10 0 61001 13500.00000 0 -12946255.629 17461933.405 13325307.717 10 0 61001 14400.00000 0 -13991312.414 18507929.101 10554571.745 10 0 61001 15300.00000 0 -14697231.925 19387832.667 7578355.802 10 0 61001 16200.00000 0 -15078633.855 20044320.993 4454471.092 10 0 61001 17100.00000 0 -15162208.150 20426184.364 1243718.546 10 0 61001 18000.00000 0 -14985376.047 20490626.080 -1991302.941 10 0 61001 18900.00000 0 -14594502.058 20205228.304 -5187432.276 10 0 61001 19800.00000 0 -14042732.731 19549497.539 -8282200.164 10 0 61001 20700.00000 0 -13387554.763 18515920.906 -11215074.532 10 0 61001 21600.00000 0 -12688177.831 17110485.393 -13928670.461 10 0 61001 22500.00000 0 -12002855.601 15352635.623 -16369898.236 10 0 61001 23400.00000 0 -11386261.280 13274670.252 -18491024.464 10 0 61001 24300.00000 0 -10887031.794 10920601.716 -20250623.340 10 0 61001 25200.00000 0 -10545587.042 8344527.498 -21614397.822 10 0 61001 26100.00000 0 -10392318.485 5608582.336 -22555853.672 10 0 61001 27000.00000 0 -10446224.718 2780558.770 -23056812.940 10 0 61001 27900.00000 0 -10714051.859 -68702.674 -23107757.324 10 0 61001 28800.00000 0 -11189974.368 -2868042.824 -22707995.684 10 0 61001 29700.00000 0 -11855828.235 -5548717.581 -21865654.027 10 0 61001 30600.00000 0 -12681884.645 -8047021.416 -20597489.986 10 0 61001 31500.00000 0 -13628129.093 -10306691.471 -18928537.519 10 0 61001 32400.00000 0 -14645989.560 -12280993.294 -16891590.837 10 0 61001 33300.00000 0 -15680438.719 -13934403.334 -14526539.656 10 0 61001 34200.00000 0 -16672379.747 -15243820.889 -11879570.570 10 0 61001 35100.00000 0 -17561214.087 -16199262.424 -9002251.632 10 0 61001 36000.00000 0 -18287482.514 -16804013.041 -5950519.130 10 0 61001 36900.00000 0 -18795468.545 -17074232.627 -2783587.051 10 0 61001 37800.00000 0 -19035655.550 -17038036.720 437199.268 10 0 61001 38700.00000 0 -18966935.642 -16734093.648 3649543.229 10 0 61001 39600.00000 0 -18558479.291 -16209798.987 6791388.544 10 0 61001 40500.00000 0 -17791189.031 -15519105.275 9802100.315 10 0 61001 41400.00000 0 -16658677.984 -14720098.400 12623614.311 10 0 61001 42300.00000 0 -15167733.541 -13872421.827 15201534.053 10 0 61001 43200.00000 0 -13338247.428 -13034655.402 17486156.619 10 0 61001 44100.00000 0 -11202614.955 -12261756.809 19433409.575 10 0 61001 45000.00000 0 -8804627.480 -11602670.830 21005683.014 10 0 61001 45900.00000 0 -6197902.308 -11098204.518 22172542.585 10 0 61001 46800.00000 0 -3443912.660 -10779255.610 22911311.191 10 0 61001 47700.00000 0 -609696.318 -10665467.296 23207509.045 10 0 61001 48600.00000 0 2234665.444 -10764365.468 23055143.825 10 0 61001 49500.00000 0 5018697.622 -11071015.233 22456844.817 10 0 61001 50400.00000 0 7674203.145 -11568212.720 21423837.185 10 0 61001 51300.00000 0 10137848.155 -12227206.463 19975754.977 10 0 61001 52200.00000 0 12353555.280 -13008921.012 18140293.970 10 0 61001 53100.00000 0 14274606.092 -13865634.422 15952708.335 10 0 61001 54000.00000 0 15865365.002 -14743042.020 13455157.946 10 0 61001 54900.00000 0 17102551.559 -15582621.945 10695916.267 10 0 61001 55800.00000 0 17976006.184 -16324204.267 7728451.887 10 0 61001 56700.00000 0 18488915.151 -16908635.758 4610399.884 10 0 61001 57600.00000 0 18657483.197 -17280427.063 1402442.113 10 0 61001 58500.00000 0 18510065.742 -17390268.583 -1832881.762 10 0 61001 59400.00000 0 18085796.036 -17197305.910 -5032408.458 10 0 61001 60300.00000 0 17432764.820 -16671075.240 -8133604.803 10 0 61001 61200.00000 0 16605829.955 -15793013.209 -11075814.246 10 0 61001 62100.00000 0 15664150.077 -14557473.847 -13801469.199 10 0 61001 63000.00000 0 14668548.815 -12972206.611 -16257242.787 10 0 61001 63900.00000 0 13678823.755 -11058273.012 -18395114.855 10 0 61001 64800.00000 0 12751116.812 -8849403.987 -20173329.179 10 0 61001 65700.00000 0 11935459.852 -6390824.607 -21557221.496 10 0 61001 66600.00000 0 11273601.432 -3737595.962 -22519901.129 10 0 61001 67500.00000 0 10797207.830 -952544.923 -23042772.623 10 0 61001 68400.00000 0 10526514.743 1896129.999 -23115887.596 10 0 61001 69300.00000 0 10469486.051 4737474.869 -22738120.935 10 0 61001 70200.00000 0 10621513.705 7500507.924 -21917169.428 10 0 61001 71100.00000 0 10965669.260 10116943.747 -20669374.711 10 0 61001 72000.00000 0 11473493.822 12523800.149 -19019376.052 10 0 61001 72900.00000 0 12106290.267 14665779.653 -16999601.847 10 0 61001 73800.00000 0 12816860.513 16497327.768 -14649611.791 10 0 61001 74700.00000 0 13551612.169 17984284.506 -12015304.378 10 0 61001 75600.00000 0 14252943.890 19105063.196 -9148006.752 10 0 61001 76500.00000 0 14861807.742 19851310.877 -6103465.790 10 0 61001 77400.00000 0 15320340.143 20228026.293 -2940760.876 10 0 61001 78300.00000 0 15574450.901 20253134.185 278840.195 10 0 61001 79200.00000 0 15576262.301 19956536.884 3493060.118 10 0 61001 80100.00000 0 15286297.084 19378685.511 6639803.550 10 0 61001 81000.00000 0 14675325.038 18568732.416 9658339.136 10 0 61001 81900.00000 0 13725792.352 17582343.100 12490450.792 10 0 61001 82800.00000 0 12432775.245 16479259.168 15081537.760 10 0 61001 83700.00000 0 10804418.805 15320713.473 17381644.322 10 0 61001 84600.00000 0 8861842.875 14166803.976 19346401.455 10 0 61001 85500.00000 0 6638518.231 13073934.182 20937864.382 10 0 61002 0.00000 0 4179137.716 12092425.050 22125231.645 10 0 61002 900.00000 0 1538025.501 11264395.649 22885433.910 10 0 61002 1800.00000 0 -1222849.126 10622000.823 23203580.549 10 0 61002 2700.00000 0 -4036178.877 10186096.840 23073257.778 10 0 61002 3600.00000 0 -6831851.227 9965392.050 22496670.454 10 0 61002 4500.00000 0 -9539606.429 9956118.335 21484624.257 10 0 61002 5400.00000 0 -12091713.280 10142238.803 20056346.614 10 0 61002 6300.00000 0 -14425553.743 10496185.318 18239147.380 10 0 61002 7200.00000 0 -16486010.188 10980097.571 16067923.067 10 0 61002 8100.00000 0 -18227556.118 11547514.361 13584511.340 10 0 61002 9000.00000 0 -19615962.402 12145448.327 10836905.523 10 0 61002 9900.00000 0 -20629546.137 12716758.494 7878342.048 10 0 61002 10800.00000 0 -21259907.671 13202721.374 4766276.853 10 0 61002 11700.00000 0 -21512122.520 13545691.800 1561269.668 10 0 61002 12600.00000 0 -21404377.808 13691739.649 -1674202.086 10 0 61002 13500.00000 0 -20967066.780 13593148.541 -4876975.886 10 0 61002 14400.00000 0 -20241378.514 13210667.627 -7984457.549 10 0 61002 15300.00000 0 -19277442.220 12515417.590 -10935868.781 10 0 61002 16200.00000 0 -18132105.341 11490366.492 -13673461.881 10 0 61002 17100.00000 0 -16866440.991 10131309.702 -16143675.137 10 0 61002 18000.00000 0 -15543092.427 8447309.677 -18298203.648 10 0 61002 18900.00000 0 -14223569.378 6460575.080 -20094962.429 10 0 61002 19800.00000 0 -12965613.068 4205783.231 -21498921.260 10 0 61002 20700.00000 0 -11820743.483 1728874.303 -22482793.876 10 0 61002 21600.00000 0 -10832093.961 -914631.472 -23027567.749 10 0 61002 22500.00000 0 -10032625.190 -3661721.799 -23122864.440 10 0 61002 23400.00000 0 -9443793.642 -6444296.529 -22767124.481 10 0 61002 24300.00000 0 -9074729.360 -9191786.031 -21967614.693 10 0 61002 25200.00000 0 -8921955.630 -11833873.144 -20740259.600 10 0 61002 26100.00000 0 -8969659.649 -14303204.327 -19109302.333 10 0 61002 27000.00000 0 -9190499.631 -16537976.985 -17106803.750 10 0 61002 27900.00000 0 -9546911.174 -18484295.854 -14771991.557 10 0 61002 28800.00000 0 -9992854.796 -20098201.803 -12150474.014 10 0 61002 29700.00000 0 -10475928.446 -21347290.808 -9293335.104 10 0 61002 30600.00000 0 -10939754.024 -22211858.504 -6256129.980 10 0 61002 31500.00000 0 -11326536.174 -22685525.816 -3097801.081 10 0 61002 32400.00000 0 -11579685.175 -22775322.965 120463.690 10 0 61002 33300.00000 0 -11646393.847 -22501231.568 3336408.694 10 0 61002 34200.00000 0 -11480061.010 -21895206.746 6487901.910 10 0 61002 35100.00000 0 -11042460.974 -20999722.246 9514117.938 10 0 61002 36000.00000 0 -10305569.539 -19865900.686 12356691.241 10 0 61002 36900.00000 0 -9252971.338 -18551307.456 14960819.152 10 0 61002 37800.00000 0 -7880790.710 -17117499.962 17276295.425 10 0 61002 38700.00000 0 -6198107.616 -15627433.246 19258456.569 10 0 61002 39600.00000 0 -4226840.991 -14142828.437 20869024.821 10 0 61002 40500.00000 0 -2001103.179 -12721611.594 22076833.398 10 0 61002 41400.00000 0 433949.699 -11415527.501 22858421.594 10 0 61002 42300.00000 0 3023726.456 -10268025.909 23198489.133 10 0 61002 43200.00000 0 5706205.212 -9312506.877 23090201.377 10 0 61002 44100.00000 0 8414253.902 -8570997.609 22535339.012 10 0 61002 45000.00000 0 11078174.276 -8053316.098 21544288.159 10 0 61002 45900.00000 0 13628367.070 -7756757.389 20135869.239 10 0 61002 46800.00000 0 15998010.354 -7666317.241 18337005.471 10 0 61002 47700.00000 0 18125641.343 -7755445.992 16182234.666 10 0 61002 48600.00000 0 19957534.941 -7987303.394 13713070.872 10 0 61002 49500.00000 0 21449779.429 -8316464.039 10977225.487 10 0 61002 50400.00000 0 22569961.218 -8691003.457 8027700.596 10 0 61002 51300.00000 0 23298386.090 -9054878.073 4921770.401 10 0 61002 52200.00000 0 23628783.181 -9350498.747 1719869.562 10 0 61002 53100.00000 0 23568459.514 -9521388.229 -1515589.982 10 0 61002 54000.00000 0 23137896.300 -9514808.165 -4721449.879 10 0 61002 54900.00000 0 22369802.277 -9284241.681 -7835058.390 10 0 61002 55800.00000 0 21307663.201 -8791622.995 -10795518.854 10 0 61002 56700.00000 0 20003848.763 -8009215.988 -13544906.652 10 0 61002 57600.00000 0 18517357.913 -6921058.633 -16029428.155 10 0 61002 58500.00000 0 16911299.593 -5523909.042 -18200496.324 10 0 61002 59400.00000 0 15250217.559 -3827650.690 -20015699.669 10 0 61002 60300.00000 0 13597374.683 -1855138.102 -21439643.893 10 0 61002 61200.00000 0 12012113.609 358511.153 -22444648.640 10 0 61002 62100.00000 0 10547406.862 2767148.237 -23011285.386 10 0 61002 63000.00000 0 9247700.627 5315295.961 -23128746.295 10 0 61002 63900.00000 0 8147143.121 7940250.102 -22795037.792 10 0 61002 64800.00000 0 7268271.175 10574489.574 -22016996.533 10 0 61002 65700.00000 0 6621208.433 13148293.256 -20810129.332 10 0 61002 66600.00000 0 6203406.223 15592452.988 -19198282.188 10 0 61002 67500.00000 0 5999934.756 17840968.977 -17213147.036 10 0 61002 68400.00000 0 5984308.879 19833615.302 -14893617.840 10 0 61002 69300.00000 0 6119810.119 21518269.435 -12285010.517 10 0 61002 70200.00000 0 6361246.160 22852910.269 -9438163.439 10 0 61002 71100.00000 0 6657071.006 23807203.697 -6408437.289 10 0 61002 72000.00000 0 6951774.601 24363612.339 -3254634.550 10 0 61002 72900.00000 0 7188440.155 24517986.229 -37860.034 10 0 61002 73800.00000 0 7311361.210 24279612.851 3179655.576 10 0 61002 74700.00000 0 7268608.760 23670727.259 6335746.888 10 0 61002 75600.00000 0 7014441.474 22725505.014 9369497.660 10 0 61002 76500.00000 0 6511459.145 21488581.560 12222395.951 10 0 61002 77400.00000 0 5732410.465 20013160.562 14839440.001 10 0 61002 78300.00000 0 4661580.602 18358789.972 17170175.584 10 0 61002 79200.00000 0 3295701.338 16588897.533 19169646.994 10 0 61002 80100.00000 0 1644345.850 14768186.744 20799245.425 10 0 61002 81000.00000 0 -270209.028 12959999.570 22027440.299 10 0 61002 81900.00000 0 -2413648.955 11223753.243 22830380.998 10 0 61002 82800.00000 0 -4740791.309 9612555.568 23192358.342 10 0 61002 83700.00000 0 -7197212.056 8171095.967 23106117.265 10 0 61002 84600.00000 0 -9721266.233 6933898.687 22573014.251 10 0 61002 85500.00000 0 -12246421.856 5924010.342 21603015.324 10 0 61003 0.00000 0 -14703813.637 5152176.748 20214532.975 10 0 61003 900.00000 0 -17024914.697 4616544.085 18434101.944 10 0 61003 1800.00000 0 -19144214.051 4302899.491 16295899.357 10 0 61003 2700.00000 0 -21001793.939 4185441.710 13841113.123 10 0 61003 3600.00000 0 -22545696.267 4228052.723 11117169.831 10 0 61003 4500.00000 0 -23733979.588 4386018.372 8176834.078 10 0 61003 5400.00000 0 -24536378.433 4608126.963 5077195.046 10 0 61003 6300.00000 0 -24935492.836 4839057.921 1878558.980 10 0 61003 7200.00000 0 -24927455.254 5021959.134 -1356730.986 10 0 61003 8100.00000 0 -24522044.055 5101102.556 -4565523.919 10 0 61003 9000.00000 0 -23742236.494 5024503.261 -7685113.654 10 0 61003 9900.00000 0 -22623218.406 4746387.933 -10654488.134 10 0 61003 10800.00000 0 -21210891.757 4229404.670 -13415548.596 10 0 61003 11700.00000 0 -19559943.312 3446476.889 -15914272.000 10 0 61003 12600.00000 0 -17731557.128 2382219.498 -18101791.339 10 0 61003 13500.00000 0 -15790869.251 1033854.614 -19935370.374 10 0 61003 14400.00000 0 -13804274.174 -588413.883 -21379252.010 10 0 61003 15300.00000 0 -11836698.862 -2461583.931 -22405362.560 10 0 61003 16200.00000 0 -9948961.094 -4550589.512 -22993857.748 10 0 61003 17100.00000 0 -8195324.575 -6809554.137 -23133500.079 10 0 61003 18000.00000 0 -6621354.144 -9183509.794 -22821861.132 10 0 61003 18900.00000 0 -5262160.675 -11610507.777 -22065346.269 10 0 61003 19800.00000 0 -4141107.869 -14024031.422 -20879043.100 10 0 61003 20700.00000 0 -3269032.854 -16355608.379 -19286398.725 10 0 61003 21600.00000 0 -2644010.128 -18537512.210 -17318734.156 10 0 61003 22500.00000 0 -2251665.139 -20505440.081 -15014607.474 10 0 61003 23400.00000 0 -2066020.498 -22201054.999 -12419040.005 10 0 61003 24300.00000 0 -2050835.575 -23574287.488 -9582622.230 10 0 61003 25200.00000 0 -2161379.821 -24585302.373 -6560518.080 10 0 61003 26100.00000 0 -2346562.602 -25206050.810 -3411387.844 10 0 61003 27000.00000 0 -2551328.026 -25421345.456 -196251.044 10 0 61003 27900.00000 0 -2719213.032 -25229416.678 3022688.753 10 0 61003 28800.00000 0 -2794960.922 -24641929.287 6183234.909 10 0 61003 29700.00000 0 -2727081.039 -23683461.416 9224382.460 10 0 61003 30600.00000 0 -2470248.110 -22390469.005 12087475.154 10 0 61003 31500.00000 0 -1987441.931 -20809780.080 14717314.197 10 0 61003 32400.00000 0 -1251739.057 -18996681.689 17063199.377 10 0 61003 33300.00000 0 -247682.579 -17012678.425 19079884.643 10 0 61003 34200.00000 0 1027826.737 -14923014.347 20728431.837 10 0 61003 35100.00000 0 2565155.337 -12794059.236 21976948.055 10 0 61003 36000.00000 0 4342094.520 -10690665.342 22801193.972 10 0 61003 36900.00000 0 6324546.158 -8673601.930 23185052.417 10 0 61003 37800.00000 0 8467710.720 -6797171.816 23120848.520 10 0 61003 38700.00000 0 10717731.523 -5107107.060 22609514.878 10 0 61003 39600.00000 0 13013730.485 -3638830.089 21660597.453 10 0 61003 40500.00000 0 15290154.398 -2416152.214 20292100.267 10 0 61003 41400.00000 0 17479337.426 -1450464.146 18530169.555 10 0 61003 42300.00000 0 19514175.734 -740453.481 16408620.720 10 0 61003 43200.00000 0 21330804.463 -272362.622 13968314.395 10 0 61003 44100.00000 0 22871165.888 -20778.349 11256390.880 10 0 61003 45000.00000 0 24085360.829 50078.208 8325375.445 10 0 61003 45900.00000 0 24933683.241 -15386.147 5232170.033 10 0 61003 46800.00000 0 25388250.227 -166249.824 2036949.892 10 0 61003 47700.00000 0 25434156.037 -347475.838 -1198013.529 10 0 61003 48600.00000 0 25070098.431 -502495.126 -4409579.825 10 0 61003 49500.00000 0 24308448.199 -575862.529 -7534991.626 10 0 61003 50400.00000 0 23174756.621 -515870.269 -10513124.697 10 0 61003 51300.00000 0 21706720.251 -277004.902 -13285709.216 10 0 61003 52200.00000 0 19952646.170 177859.871 -15798495.622 10 0 61003 53100.00000 0 17969482.982 875630.881 -18002339.553 10 0 61003 54000.00000 0 15820501.843 1831604.224 -19854182.349 10 0 61003 54900.00000 0 13572727.096 3048576.284 -21317906.147 10 0 61003 55800.00000 0 11294226.848 4516496.113 -22365045.653 10 0 61003 56700.00000 0 9051379.470 6212674.473 -22975342.244 10 0 61003 57600.00000 0 6906232.466 8102540.543 -23137129.841 10 0 61003 58500.00000 0 4914065.520 10140913.511 -22847545.892 10 0 61003 59400.00000 0 3121259.921 12273734.217 -22112564.785 10 0 61003 60300.00000 0 1563562.653 14440182.541 -20946854.842 10 0 61003 61200.00000 0 264815.939 16575090.099 -19373463.749 10 0 61003 62100.00000 0 -763797.429 18611545.862 -17423340.669 10 0 61003 63000.00000 0 -1523964.840 20483584.747 -15134706.440 10 0 61003 63900.00000 0 -2029905.799 22128846.432 -12552286.047 10 0 61003 64800.00000 0 -2307503.193 23491093.655 -9726419.958 10 0 61003 65700.00000 0 -2392944.154 24522485.852 -6712072.878 10 0 61003 66600.00000 0 -2330930.851 25185514.821 -3567760.134 10 0 61003 67500.00000 0 -2172538.974 25454523.757 -354412.959 10 0 61003 68400.00000 0 -1972815.603 25316748.636 2865795.361 10 0 61003 69300.00000 0 -1788218.277 24772840.969 6030640.200 10 0 61003 70200.00000 0 -1674002.843 23836852.344 9079031.129 10 0 61003 71100.00000 0 -1681669.092 22535683.219 11952170.780 10 0 61003 72000.00000 0 -1856570.195 20908020.071 14594666.389 10 0 61003 72900.00000 0 -2235784.778 19002805.524 16955574.636 10 0 61003 73800.00000 0 -2846339.418 16877304.620 18989361.787 10 0 61003 74700.00000 0 -3703854.979 14594846.322 20656762.737 10 0 61003 75600.00000 0 -4811672.986 12222332.090 21925524.362 10 0 61003 76500.00000 0 -6160498.962 9827612.456 22771020.412 10 0 61003 77400.00000 0 -7728578.914 7476837.755 23176727.121 10 0 61003 78300.00000 0 -9482403.787 5231890.260 23134550.768 10 0 61003 79200.00000 0 -11377915.506 3148001.926 22645000.540 10 0 61003 80100.00000 0 -13362167.775 1271654.896 21717202.261 10 0 61003 81000.00000 0 -15375376.122 -361148.985 20368750.992 10 0 61003 81900.00000 0 -17353275.268 -1726177.867 18625402.978 10 0 61003 82800.00000 0 -19229688.490 -2811764.381 16520610.208 10 0 61003 83700.00000 0 -20939203.933 -3619070.459 14094903.708 10 0 61003 84600.00000 0 -22419847.135 -4161809.671 11395134.704 10 0 61003 85500.00000 0 -23615637.906 -4465436.758 8473585.987 99